EW0923 Weather Reports


Display with metric or nautical units.
time (UTC)temp
F
wind
direction
speed
MPH
gust
MPH
rain 1hr
in
rain 24hr
in
rain mn
in
humidity
%
barometer
mb
20260508151540 61 146 3.0 8.0 0.00 0.00 0.00 38 1013.3
20260508151033 61 290 2.0 10.0 0.00 0.00 0.00 38 1013.3
20260508150525 61 263 4.0 10.0 0.00 0.00 0.00 37 1013.2
20260508150037 61 230 2.0 10.0 0.00 0.00 0.00 37 1013.3
20260508145523 60 277 2.0 10.0 0.00 0.00 0.00 38 1013.4
20260508145025 60 227 4.0 8.0 0.00 0.00 0.00 37 1013.5
20260508144544 60 229 2.0 10.0 0.00 0.00 0.00 41 1013.5
20260508144025 60 277 4.0 11.0 0.00 0.00 0.00 38 1013.6
20260508143526 60 277 3.0 11.0 0.00 0.00 0.00 39 1013.6
20260508143045 59 270 2.0 7.0 0.00 0.00 0.00 42 1013.6
20260508142527 59 306 2.0 5.0 0.00 0.00 0.00 39 1013.6
20260508142026 59 326 2.0 4.0 0.00 0.00 0.00 40 1013.6
20260508141541 59 253 1.0 7.0 0.00 0.00 0.00 42 1013.6
20260508141027 58 288 2.0 8.0 0.00 0.00 0.00 43 1013.6
20260508140524 58 275 1.0 9.0 0.00 0.00 0.00 45 1013.6
20260508140037 58 182 3.0 9.0 0.00 0.00 0.00 45 1013.6
20260508135530 58 257 2.0 5.0 0.00 0.00 0.00 41 1013.7
20260508135026 58 283 2.0 5.0 0.00 0.00 0.00 42 1013.7
20260508134546 59 275 1.0 4.0 0.00 0.00 0.00 42 1013.7
20260508134023 58 265 1.0 4.0 0.00 0.00 0.00 46 1013.7
20260508133527 58 320 1.0 4.0 0.00 0.00 0.00 44 1013.9
20260508133048 58 329 1.0 4.0 0.00 0.00 0.00 43 1013.9
20260508132524 57 339 1.0 3.0 0.00 0.00 0.00 43 1013.8
20260508132029 57 281 1.0 3.0 0.00 0.00 0.00 44 1013.9
20260508131551 57 271 1.0 4.0 0.00 0.00 0.00 46 1014.0
20260508131029 56 311 1.0 4.0 0.00 0.00 0.00 48 1014.0
20260508130532 56 283 1.0 4.0 0.00 0.00 0.00 48 1013.9
20260508130052 56 294 1.0 4.0 0.00 0.00 0.00 49 1013.9
20260508125529 55 59 1.0 4.0 0.00 0.00 0.00 51 1013.8
20260508125029 55 311 1.0 5.0 0.00 0.00 0.00 52 1013.8
20260508124543 55 306 2.0 5.0 0.00 0.00 0.00 52 1013.8
20260508124032 55 311 1.0 3.0 0.00 0.00 0.00 56 1013.9
20260508123525 55 307 1.0 5.0 0.00 0.00 0.00 57 1013.8
20260508123044 55 340 1.0 5.0 0.00 0.00 0.00 57 1013.8
20260508122528 54 322 1.0 4.0 0.00 0.00 0.00 57 1013.8
20260508122029 54 292 1.0 4.0 0.00 0.00 0.00 60 1013.8
20260508121546 54 315 0.0 2.0 0.00 0.00 0.00 61 1013.8
20260508121030 54 321 1.0 3.0 0.00 0.00 0.00 60 1013.8
20260508120528 53 288 1.0 3.0 0.00 0.00 0.00 63 1013.7
20260508120045 53 257 1.0 2.0 0.00 0.00 0.00 64 1013.6
20260508115531 53 277 0.0 2.0 0.00 0.00 0.00 65 1013.6
20260508115025 53 324 0.0 2.0 0.00 0.00 0.00 66 1013.6
20260508114543 52 286 1.0 2.0 0.00 0.00 0.00 66 1013.6
20260508114028 52 264 0.0 3.0 0.00 0.00 0.00 68 1013.6
20260508113527 51 338 0.0 3.0 0.00 0.00 0.00 69 1013.8
20260508113052 51 263 1.0 2.0 0.00 0.00 0.00 69 1013.7
20260508112525 51 296 0.0 2.0 0.00 0.00 0.00 71 1013.7
20260508112028 50 286 0.0 2.0 0.00 0.00 0.00 71 1013.6
20260508111544 50 307 0.0 1.0 0.00 0.00 0.00 73 1013.5
20260508111026 49 0 0.0 1.0 0.00 0.00 0.00 76 1013.3
20260508110529 48 0 0.0 0.0 0.00 0.00 0.00 78 1013.2
20260508110054 46 0 0.0 0.0 0.00 0.00 0.00 80 1013.2
20260508105525 45 0 0.0 0.0 0.00 0.00 0.00 81 1013.1
20260508105026 44 0 0.0 0.0 0.00 0.00 0.00 82 1013.1
20260508104546 44 0 0.0 0.0 0.00 0.00 0.00 81 1013.0
20260508104026 44 0 0.0 0.0 0.00 0.00 0.00 80 1013.0
20260508103526 44 0 0.0 0.0 0.00 0.00 0.00 81 1013.1
20260508103043 44 0 0.0 0.0 0.00 0.00 0.00 80 1013.0
20260508102528 44 0 0.0 0.0 0.00 0.00 0.00 79 1012.9
20260508102029 44 0 0.0 0.0 0.00 0.00 0.00 79 1012.9
20260508101550 44 0 0.0 0.0 0.00 0.00 0.00 79 1012.8
20260508101027 44 0 0.0 0.0 0.00 0.00 0.00 78 1012.7
20260508100526 45 0 0.0 0.0 0.00 0.00 0.00 76 1012.7
20260508100041 45 0 0.0 0.0 0.00 0.00 0.00 75 1012.6
20260508095528 46 0 0.0 0.0 0.00 0.00 0.00 74 1012.5
20260508095027 47 0 0.0 0.0 0.00 0.00 0.00 73 1012.4
20260508094552 47 0 0.0 1.0 0.00 0.00 0.00 71 1012.5
20260508094025 48 0 0.0 2.0 0.00 0.00 0.00 70 1012.3
20260508093526 48 0 0.0 4.0 0.00 0.00 0.00 69 1012.2
20260508093055 49 344 0.0 4.0 0.00 0.00 0.00 68 1012.1
20260508092526 49 344 2.0 5.0 0.00 0.00 0.00 67 1012.1
20260508092026 49 319 1.0 5.0 0.00 0.00 0.00 67 1012.2
20260508091542 49 346 1.0 4.0 0.00 0.00 0.00 67 1012.2
20260508091027 49 329 0.0 3.0 0.00 0.00 0.00 66 1012.1
20260508090526 50 340 0.0 3.0 0.00 0.00 0.00 66 1012.1
20260508085524 50 319 2.0 4.0 0.00 0.00 0.00 65 1012.0
20260508085024 50 326 1.0 6.0 0.00 0.00 0.00 64 1011.9
20260508084536 51 321 1.0 8.0 0.00 0.00 0.00 64 1011.8
20260508084025 51 337 4.0 9.0 0.00 0.00 0.00 63 1011.8
20260508083527 51 333 1.0 9.0 0.00 0.00 0.00 63 1011.8
20260508083045 51 14 2.0 9.0 0.00 0.00 0.00 62 1011.5
20260508082525 51 322 2.0 9.0 0.00 0.00 0.00 62 1011.5
20260508082026 52 323 4.0 10.0 0.00 0.00 0.00 61 1011.2
20260508081542 52 10 3.0 11.0 0.00 0.00 0.00 61 1011.2
20260508081026 52 51 2.0 11.0 0.00 0.00 0.00 61 1011.1
20260508080526 52 336 4.0 12.0 0.00 0.00 0.00 60 1010.9
20260508080041 52 317 3.0 12.0 0.00 0.00 0.00 61 1010.9
20260508075526 53 246 3.0 17.0 0.00 0.00 0.00 61 1010.8
20260508075029 53 9 5.0 17.0 0.00 0.00 0.00 61 1010.6
20260508074545 53 278 4.0 13.0 0.00 0.00 0.00 63 1010.6
20260508074026 52 345 2.0 8.0 0.00 0.00 0.00 66 1010.7
20260508073522 52 328 3.0 8.0 0.00 0.00 0.00 66 1010.5
20260508073044 52 334 1.0 5.0 0.00 0.00 0.00 67 1010.4
20260508072524 53 321 2.0 5.0 0.00 0.00 0.00 67 1010.3
20260508072025 53 324 1.0 5.0 0.00 0.00 0.00 68 1010.1
20260508071544 53 336 2.0 5.0 0.00 0.00 0.00 69 1010.0
20260508071026 52 13 1.0 5.0 0.00 0.00 0.00 71 1009.9
20260508070526 52 306 1.0 5.0 0.00 0.00 0.00 72 1009.9
20260508070050 52 286 1.0 6.0 0.00 0.00 0.00 74 1009.8
20260508065530 52 299 1.0 6.0 0.00 0.09 0.00 75 1009.8
20260508065027 52 285 0.0 2.0 0.00 0.09 0.00 76 1009.7
20260508064544 52 298 1.0 2.0 0.00 0.09 0.00 76 1009.6
20260508064028 52 290 1.0 2.0 0.00 0.09 0.00 76 1009.6
20260508063533 52 272 1.0 3.0 0.00 0.09 0.00 76 1009.4
20260508063044 53 306 1.0 3.0 0.00 0.09 0.00 76 1009.4
20260508062525 53 263 1.0 4.0 0.00 0.09 0.00 76 1009.4
20260508062025 53 273 1.0 4.0 0.00 0.09 0.00 75 1009.3
20260508061545 53 309 1.0 4.0 0.00 0.09 0.00 75 1009.2
20260508061028 53 281 1.0 7.0 0.00 0.09 0.00 75 1009.1
20260508060526 53 275 1.0 7.0 0.00 0.09 0.00 74 1009.1
20260508060043 53 269 1.0 7.0 0.00 0.09 0.00 74 1009.1
20260508055528 53 290 1.0 6.0 0.00 0.12 0.00 74 1009.0
20260508055031 53 286 1.0 6.0 0.00 0.12 0.00 74 1009.0
20260508054544 53 283 1.0 3.0 0.00 0.12 0.00 74 1009.0
20260508054026 53 249 1.0 7.0 0.00 0.12 0.00 74 1009.0
20260508053527 53 297 1.0 7.0 0.00 0.12 0.00 74 1009.0
20260508053045 53 272 1.0 5.0 0.00 0.12 0.00 73 1008.9
20260508052525 53 270 1.0 5.0 0.00 0.12 0.00 73 1009.0
20260508052026 53 274 1.0 3.0 0.00 0.12 0.00 73 1009.0
20260508051536 53 277 1.0 3.0 0.00 0.12 0.00 73 1009.0
20260508051026 53 263 1.0 4.0 0.00 0.12 0.00 73 1009.0
20260508050526 53 286 1.0 4.0 0.00 0.12 0.00 73 1009.0
20260508050043 53 294 0.0 2.0 0.00 0.12 0.00 73 1009.1
20260508045526 53 290 0.0 3.0 0.00 0.12 0.00 73 1009.0
20260508045025 53 279 1.0 8.0 0.00 0.12 0.00 73 1009.1
20260508044554 53 274 2.0 8.0 0.00 0.12 0.00 73 1009.0
20260508044028 53 304 1.0 4.0 0.00 0.12 0.00 73 1009.0
20260508043526 52 317 1.0 4.0 0.00 0.12 0.00 73 1009.1
20260508043045 52 279 1.0 5.0 0.00 0.12 0.00 73 1009.0
20260508042528 52 290 1.0 6.0 0.00 0.12 0.00 73 1009.0
20260508042028 52 274 1.0 6.0 0.00 0.12 0.00 73 1009.0
20260508041553 52 269 1.0 4.0 0.00 0.12 0.00 73 1009.0
20260508041025 52 274 1.0 3.0 0.00 0.12 0.00 73 1009.0
20260508040526 52 282 1.0 3.0 0.00 0.12 0.00 72 1009.0
20260508040051 53 217 1.0 4.0 0.00 0.12 0.00 72 1008.9
20260508035528 53 263 1.0 4.0 0.00 0.12 0.12 72 1008.9
20260508035025 53 283 1.0 4.0 0.00 0.12 0.12 72 1008.8
20260508034545 53 271 1.0 6.0 0.00 0.12 0.12 72 1008.8
20260508034028 53 265 1.0 7.0 0.00 0.12 0.12 72 1008.8
20260508033525 53 360 1.0 7.0 0.00 0.12 0.12 72 1008.8
20260508033039 53 272 1.0 3.0 0.00 0.12 0.12 73 1008.9
20260508032527 53 281 1.0 3.0 0.00 0.12 0.12 73 1008.8
20260508032030 53 277 1.0 7.0 0.00 0.12 0.12 74 1008.9
20260508031556 53 294 1.0 7.0 0.00 0.12 0.12 74 1008.9
20260508031028 53 281 1.0 10.0 0.00 0.12 0.12 74 1008.8
20260508030524 53 296 1.0 10.0 0.00 0.12 0.12 75 1008.9
20260508030059 52 277 2.0 10.0 0.00 0.12 0.12 76 1008.9
20260508025528 52 218 2.0 5.0 0.00 0.12 0.12 76 1008.9
20260508025028 52 252 1.0 4.0 0.00 0.12 0.12 77 1008.9
20260508024543 52 170 1.0 4.0 0.00 0.12 0.12 77 1009.0
20260508024025 52 154 1.0 4.0 0.00 0.12 0.12 77 1008.8
20260508023524 52 211 1.0 4.0 0.00 0.12 0.12 76 1008.9
20260508023045 52 0 1.0 4.0 0.00 0.12 0.12 76 1009.0
20260508022528 52 159 1.0 4.0 0.00 0.12 0.12 76 1008.9
20260508022025 52 233 1.0 2.0 0.00 0.12 0.12 75 1008.9
20260508021546 53 230 0.0 2.0 0.00 0.12 0.12 74 1008.9
20260508021024 53 129 0.0 4.0 0.00 0.12 0.12 73 1008.7
20260508020524 53 0 0.0 4.0 0.00 0.12 0.12 72 1008.7
20260508020044 53 254 1.0 3.0 0.00 0.12 0.12 70 1008.7
20260508015524 54 229 0.0 3.0 0.00 0.12 0.12 67 1008.7
20260508015028 54 205 1.0 5.0 0.00 0.12 0.12 67 1008.7
20260508014545 54 123 0.0 6.0 0.00 0.12 0.12 66 1008.7
20260508014029 54 234 1.0 6.0 0.00 0.12 0.12 65 1008.7
20260508013528 54 173 1.0 7.0 0.00 0.12 0.12 61 1008.6
20260508013043 54 128 3.0 7.0 0.00 0.12 0.12 59 1008.6
20260508012525 54 125 2.0 4.0 0.00 0.12 0.12 56 1008.4
20260508012028 53 113 0.0 2.0 0.00 0.12 0.12 57 1008.4
20260508011540 53 0 0.0 0.0 0.00 0.12 0.12 61 1008.3
20260508011025 53 0 0.0 0.0 0.00 0.12 0.12 58 1008.1
20260508010525 54 0 0.0 0.0 0.00 0.12 0.12 57 1008.0
20260508010041 54 0 0.0 0.0 0.00 0.12 0.12 54 1008.1
20260508005530 54 0 0.0 0.0 0.00 0.12 0.12 54 1008.0
20260508005024 55 0 0.0 0.0 0.00 0.12 0.12 50 1008.1
20260508004542 55 0 0.0 0.0 0.00 0.12 0.12 52 1008.0
20260508004029 55 0 0.0 0.0 0.00 0.12 0.12 51 1007.9
20260508003531 56 0 0.0 0.0 0.00 0.12 0.12 48 1007.9
20260508003058 56 0 0.0 0.0 0.00 0.12 0.12 49 1008.0
20260508002529 57 0 0.0 0.0 0.00 0.12 0.12 49 1007.9
20260508002028 57 0 0.0 0.0 0.00 0.12 0.12 47 1007.9
20260508001543 58 0 0.0 0.0 0.00 0.12 0.12 47 1007.9
20260508001028 58 0 0.0 0.0 0.00 0.12 0.12 44 1007.7
20260508000525 59 0 0.0 0.0 0.00 0.12 0.12 42 1007.5
20260508000042 60 0 0.0 0.0 0.00 0.12 0.12 41 1007.6
20260507235525 60 0 0.0 1.0 0.00 0.12 0.12 41 1007.5
20260507235028 61 0 0.0 1.0 0.00 0.12 0.12 38 1007.6
20260507234546 61 0 0.0 1.0 0.00 0.12 0.12 38 1007.5
20260507234025 62 0 0.0 3.0 0.00 0.12 0.12 37 1007.4
20260507233525 62 0 0.0 3.0 0.00 0.12 0.12 35 1007.4
20260507233036 63 276 0.0 2.0 0.00 0.12 0.12 35 1007.2
20260507232525 63 298 1.0 3.0 0.00 0.12 0.12 34 1007.4
20260507232028 63 300 1.0 3.0 0.00 0.12 0.12 35 1007.3
20260507231552 63 331 0.0 3.0 0.00 0.12 0.12 34 1007.2
20260507231027 63 328 0.0 3.0 0.00 0.12 0.12 34 1007.1
20260507230528 63 342 1.0 2.0 0.00 0.12 0.12 34 1007.1
20260507230044 63 281 1.0 3.0 0.00 0.12 0.12 33 1006.9
20260507225528 64 294 1.0 8.0 0.00 0.12 0.12 32 1006.9
20260507225025 64 302 0.0 8.0 0.00 0.12 0.12 33 1006.9
20260507224555 64 307 1.0 8.0 0.00 0.12 0.12 34 1006.9
20260507224028 64 322 1.0 8.0 0.00 0.12 0.12 33 1006.9
20260507223528 64 330 3.0 8.0 0.00 0.12 0.12 32 1006.8
20260507223049 64 347 1.0 5.0 0.00 0.12 0.12 33 1006.9
20260507222527 64 329 2.0 5.0 0.00 0.12 0.12 31 1007.1
20260507222027 64 321 2.0 4.0 0.00 0.12 0.12 32 1007.0
20260507221545 64 53 2.0 4.0 0.00 0.12 0.12 33 1007.1
20260507221028 64 56 1.0 4.0 0.00 0.12 0.12 33 1007.2
20260507220527 64 323 1.0 5.0 0.00 0.12 0.12 35 1007.3
20260507220045 64 323 2.0 5.0 0.00 0.12 0.12 33 1007.2
20260507215525 64 298 2.0 9.0 0.00 0.12 0.12 33 1007.3
20260507215029 64 333 2.0 9.0 0.00 0.12 0.12 34 1007.4
20260507214546 64 274 3.0 9.0 0.00 0.12 0.12 34 1007.5
20260507214028 64 279 1.0 4.0 0.00 0.12 0.12 34 1007.4
20260507213529 64 302 2.0 4.0 0.00 0.12 0.12 33 1007.5
20260507213048 64 290 1.0 5.0 0.00 0.12 0.12 34 1007.4
20260507212525 64 211 1.0 5.0 0.00 0.12 0.12 33 1007.3
20260507212025 64 42 2.0 9.0 0.00 0.12 0.12 32 1007.3
20260507211537 64 351 1.0 9.0 0.00 0.12 0.12 33 1007.4
20260507211027 65 331 2.0 8.0 0.00 0.12 0.12 33 1007.2
20260507210529 65 90 1.0 9.0 0.00 0.12 0.12 34 1007.3
20260507210112 64 86 2.0 9.0 0.00 0.12 0.12 32 1007.3
20260507205528 65 9 2.0 5.0 0.00 0.12 0.12 33 1007.2
20260507205028 64 298 1.0 7.0 0.00 0.12 0.12 34 1007.3
20260507204542 64 217 2.0 7.0 0.00 0.12 0.12 32 1007.2
20260507204028 65 16 2.0 8.0 0.00 0.12 0.12 33 1007.2
20260507203528 64 21 3.0 8.0 0.00 0.12 0.12 33 1007.1
20260507203044 64 13 3.0 8.0 0.00 0.12 0.12 32 1007.1
20260507202528 64 295 2.0 11.0 0.00 0.12 0.12 33 1007.1
20260507202028 64 272 1.0 11.0 0.00 0.12 0.12 34 1007.1
20260507201542 64 325 3.0 8.0 0.00 0.12 0.12 34 1007.2
20260507201030 64 346 2.0 9.0 0.00 0.12 0.12 33 1007.1
20260507200528 64 267 1.0 12.0 0.00 0.12 0.12 33 1007.2
20260507195528 64 292 2.0 12.0 0.00 0.12 0.12 34 1007.3
20260507195029 63 334 1.0 6.0 0.00 0.12 0.12 33 1007.3
20260507194544 64 284 2.0 6.0 0.00 0.12 0.12 32 1007.4
20260507194027 64 292 2.0 6.0 0.00 0.12 0.12 33 1007.5
20260507193530 63 317 3.0 8.0 0.00 0.12 0.12 34 1007.5
20260507193109 63 336 3.0 8.0 0.00 0.12 0.12 34 1007.5
20260507192527 63 323 3.0 12.0 0.00 0.12 0.12 34 1007.5
20260507192028 63 309 4.0 12.0 0.00 0.12 0.12 33 1007.5
20260507191553 64 13 2.0 9.0 0.00 0.12 0.12 32 1007.7
20260507191028 64 325 4.0 9.0 0.00 0.12 0.12 32 1007.8
20260507190528 64 344 5.0 9.0 0.00 0.12 0.12 33 1007.9
20260507190041 63 329 3.0 13.0 0.00 0.12 0.12 36 1008.1
20260507185528 63 14 5.0 13.0 0.00 0.12 0.12 34 1008.2
20260507185028 63 285 2.0 8.0 0.00 0.12 0.12 36 1008.1
20260507184546 63 298 2.0 9.0 0.00 0.12 0.12 34 1008.0
20260507184030 64 316 2.0 9.0 0.00 0.12 0.12 35 1008.2
20260507183528 64 74 4.0 11.0 0.00 0.12 0.12 33 1008.2
20260507183057 64 290 1.0 12.0 0.00 0.12 0.12 33 1008.1
20260507182525 64 274 6.0 12.0 0.00 0.12 0.12 34 1008.1
20260507182028 65 62 2.0 6.0 0.00 0.12 0.12 37 1008.1
20260507181545 64 246 1.0 6.0 0.00 0.12 0.12 37 1008.1
20260507181028 63 300 2.0 7.0 0.00 0.12 0.12 37 1008.1
20260507180529 63 290 2.0 7.0 0.00 0.12 0.12 38 1008.2
20260507180043 63 230 2.0 9.0 0.00 0.12 0.12 38 1008.2
20260507175559 63 297 3.0 9.0 0.00 0.12 0.12 36 1008.3
20260507175030 64 277 2.0 5.0 0.00 0.12 0.12 38 1008.5
20260507174546 63 308 1.0 10.0 0.00 0.12 0.12 38 1008.3
20260507174030 63 336 3.0 13.0 0.00 0.12 0.12 36 1008.6
20260507173528 63 37 2.0 13.0 0.00 0.12 0.12 38 1008.9
20260507173112 63 330 5.0 13.0 0.00 0.12 0.12 37 1008.9
20260507172525 63 305 2.0 8.0 0.00 0.12 0.12 37 1008.9
20260507172027 62 298 3.0 8.0 0.00 0.12 0.12 42 1009.0
20260507171547 62 333 1.0 6.0 0.00 0.12 0.12 43 1009.1
20260507171027 62 59 2.0 8.0 0.00 0.12 0.12 45 1009.3
20260507170530 61 291 2.0 9.0 0.00 0.12 0.12 44 1009.3
20260507170049 61 16 3.0 9.0 0.00 0.12 0.12 46 1009.6
20260507165528 61 260 1.0 4.0 0.00 0.12 0.12 45 1009.6
20260507165031 60 232 2.0 4.0 0.00 0.12 0.12 48 1009.6
20260507164553 59 170 1.0 3.0 0.00 0.12 0.12 48 1009.6
20260507164031 59 290 1.0 6.0 0.00 0.12 0.12 48 1009.9
20260507163528 58 278 1.0 6.0 0.00 0.12 0.12 52 1009.9
20260507163045 58 271 1.0 7.0 0.00 0.12 0.12 51 1010.1
20260507162528 58 286 3.0 7.0 0.00 0.12 0.12 51 1010.1
20260507162030 58 302 1.0 5.0 0.00 0.12 0.12 53 1010.2
20260507161549 58 187 1.0 6.0 0.00 0.12 0.12 53 1010.3
20260507161029 57 44 2.0 6.0 0.00 0.12 0.12 55 1010.2
20260507160529 57 333 3.0 6.0 0.00 0.12 0.12 53 1010.3
20260507160059 58 82 3.0 6.0 0.00 0.12 0.12 53 1010.3
20260507155531 58 55 2.0 6.0 0.00 0.12 0.12 53 1010.3
20260507155031 58 241 0.0 6.0 0.00 0.12 0.12 54 1010.4
20260507154545 58 344 2.0 6.0 0.00 0.12 0.12 52 1010.4
20260507154032 58 309 1.0 6.0 0.00 0.12 0.12 53 1010.4
20260507153528 58 53 2.0 8.0 0.00 0.12 0.12 54 1010.4
20260507153043 57 122 2.0 12.0 0.00 0.12 0.12 54 1010.4
20260507152528 58 325 3.0 12.0 0.00 0.12 0.12 54 1010.7
20260507152028 58 19 3.0 8.0 0.00 0.12 0.12 54 1010.8